Regional Weather Roundup
Issued by NWS

Home | Current Version | Previous Version | Text Only | Print | Product List | Glossary On
Versions: 1 2 3 4 5 6 7 8 9 10 11 12 13 14 15 16 17 18 19 20 21 22 23 24 25 26 27 28 29 30 31 32 33 34 35 36 37 38 39 40 41 42 43 44 45 46 47 48 49 50
000
ASUS43 KLSX 291507
RWRMO
STLRWRMO ALL

WEATHER SUMMARY FOR MISSOURI
NATIONAL WEATHER SERVICE SPRINGFIELD MO
1000 AM CDT THU JUN 29 2017

NOTE: "FAIR" INDICATES FEW OR NO CLOUDS BELOW 12,000 FEET WITH NO
       SIGNIFICANT WEATHER AND/OR OBSTRUCTIONS TO VISIBILITY.
       CURRENT SKY AND/OR WEATHER CONDITIONS ARE NOT AVAILABLE FOR
       CHILLICOTHE AND FARMINGTON.

MOZ001>031-035>038-043-044-053-054-291600-
...NORTHERN AND WESTERN MISSOURI...

CITY           SKY/WX    TMP DP  RH WIND       PRES   REMARKS
KANSAS CTY INT LGT RAIN  67  65  93 SE3       29.93R
KANSAS C DTWN  HVY RAIN  68  67  96 N7        29.92R FOG
LEE`S SUMMIT   LGT RAIN  68  68 100 CALM      29.92R
ST JOSEPH      LGT RAIN  68  68 100 S8        29.90R FOG
CHILLICOTHE      N/A     68  67  96 SE12      29.94R

$$
MOZ066>068-077>081-088>096-101>105-291600-
...SOUTHWEST MISSOURI...

CITY           SKY/WX    TMP DP  RH WIND       PRES   REMARKS
SPRINGFIELD    MOSUNNY   78  69  73 S13       29.93S
JOPLIN         SUNNY     82  71  69 S15G25    29.90R
BRANSON        PTSUNNY   79  68  69 SE8G16    29.96F

$$
MOZ032>034-039>042-045>050-055>058-069>072-291600-
...CENTRAL MISSOURI...

CITY           SKY/WX    TMP DP  RH WIND       PRES   REMARKS
COLUMBIA       CLOUDY    73  68  84 S7        29.95R
JEFFERSON CITY CLOUDY    76  66  71 SE6       29.93S
ROLLA          SUNNY     81  69  67 SW9       29.95S
SEDALIA        CLOUDY    74  71  91 SE7       29.94R
WHITEMAN AFB   TSTM      73  73 100 S7        29.92S
WARRENSBURG    TSTM      68  64  88 CALM      29.94R
OSAGE BEACH    MOSUNNY   81  70  69 S9        29.94S

$$
MOZ051-052-059>065-291600-
...EAST CENTRAL MISSOURI...

CITY           SKY/WX    TMP DP  RH WIND       PRES   REMARKS
ST LOUIS INTL  PTSUNNY   86  66  51 SW21G30   29.91S
SPIRIT OF STL  MOSUNNY   82  69  64 SW12      29.90S
ST CHARLES     MOSUNNY   82  67  60 SW17G30   29.88F

$$
MOZ072>076-082>087-097>100-106>115-291600-
...SOUTH CENTRAL AND SOUTHEAST MISSOURI...

CITY           SKY/WX    TMP DP  RH WIND       PRES   REMARKS
CAPE GIRARDEAU MOSUNNY   80  70  71 SW14      29.98S
FARMINGTON     SUNNY     81  69  67 S12       29.98F
POPLAR BLUFF   CLOUDY    77  72  84 SW10      29.99R
WEST PLAINS    MOSUNNY   78  68  71 S10       30.00S

$$



USA.gov is the U.S. government's official web portal to all federal, state and local government web resources and services.